User: anonymous   Login
Location: Pilipovskiye Korichintsy
(49.1833°N, 27.4667°E)
Time: 07:27:30
(UTC+00:00)
Language:

Cosmos 1378 Rocket - Orbit

View from above orbital plane
View from above orbital plane
View from above satellite
View from above satellite

Ground track
Ground track

The orbit data is extracted from the following two-line orbital elements,

1 13272U 82059B   20273.91530780 +.00000114 +00000-0 +10505-4 0  9997
2 13272 082.5076 090.8458 0020006 110.5567 249.7798 14.84718520048976
Epoch (UTC): 29 September 2020 21:58:02
Eccentricity: 0.0020006
inclination: 82.5076°
perigee height: 600 km
apogee height: 628 km
right ascension of ascending node: 90.8458°
argument of perigee: 110.5567°
revolutions per day: 14.84718520
mean anomaly at epoch: 249.7798°
orbit number at epoch: 4897

The dashed part of the orbit path shows where the satellite is in the earth's shadow,  

DLR